Weather History for Atlanta Dekalb, GA

Change the Weather History Date:

Thursday, November 3, 2011

  Actual Average Record
Temperature  
Mean Temperature 58 °F 56 °F  
Max Temperature 70 °F 67 °F 81 °F (2000)
Min Temperature 45 °F 45 °F 29 °F (2014)
Degree Days  
Heating Degree Days 8 9  
Month to date heating degree days 27  
Since 1 July heating degree days 179  
Growing Degree Days 8 (Base 50)    
Moisture  
Dew Point 46 °F    
Average Humidity 72    
Maximum Humidity 94    
Minimum Humidity 46    
Precipitation  
Precipitation 0.53 in 0.11 in 0.69 in (2010)
Month to date precipitation 0.34  
Year to date precipitation 44.93  
Sea Level Pressure  
Sea Level Pressure 30.02 in    
Wind  
Wind Speed 5 mph (SW)    
Max Wind Speed 20 mph    
Max Gust Speed 32 mph    
Visibility 9 miles    
Events Rain    
T = Trace of Precipitation, MM = Missing Value Source: NWS Daily Summary

Daily Weather History Graph

Daily Weather History Graph

Search for Another Location

Airport:

Trip Planner

Search our weather history database for the weather conditions in past years. The results will help you decide how hot, cold, wet, or windy it might be!

Date:

Astronomy

Nov. 03, 2011 Rise Set
Actual Time 7:58 AM EDT 6:42 PM EDT
Civil Twilight 7:32 AM EDT 7:08 PM EDT
Nautical Twilight 7:02 AM EDT 7:38 PM EDT
Astronomical Twilight 6:33 AM EDT 8:07 PM EDT
Moon 2:49 PM EDT (11/3) 1:28 AM EDT (11/3)
Length of Visible Light 11h 36m
Length of Day
10h 44m
First Quarter, 60% of the Moon is Illuminated
Nov 3
First Quarter
Nov 10
Full
Nov 18
Last Quarter
Nov 25
New
Dec 2
First Quarter

Hourly Weather History & Observations

Time (EDT) Temp. Windchill Dew Point Humidity Pressure Visibility Wind Dir Wind Speed Gust Speed Precip Events Conditions
12:53 AM 48.0 °F - 37.9 °F 68% 30.25 in 10.0 mi Calm Calm - N/A   Clear
1:53 AM 46.9 °F - 37.0 °F 68% 30.24 in 10.0 mi East 3.5 mph - N/A   Clear
2:53 AM 48.0 °F - 37.0 °F 66% 30.22 in 10.0 mi Calm Calm - N/A   Clear
3:53 AM 48.9 °F - 37.0 °F 64% 30.20 in 10.0 mi Variable 3.5 mph - N/A   Partly Cloudy
4:53 AM 48.9 °F - 37.9 °F 66% 30.20 in 10.0 mi Calm Calm - N/A   Overcast
5:53 AM 48.9 °F - 39.0 °F 69% 30.20 in 10.0 mi Calm Calm - N/A   Overcast
6:53 AM 46.9 °F - 39.0 °F 74% 30.19 in 10.0 mi Calm Calm - N/A   Scattered Clouds
7:53 AM 45.0 °F 42.6 °F 39.9 °F 82% 30.17 in 10.0 mi ESE 4.6 mph - N/A   Clear
8:53 AM 48.9 °F - 41.0 °F 74% 30.16 in 9.0 mi SSE 5.8 mph - N/A   Clear
9:53 AM 53.1 °F - 39.9 °F 61% 30.15 in 10.0 mi Variable 3.5 mph - N/A   Clear
10:53 AM 59.0 °F - 41.0 °F 51% 30.11 in 10.0 mi South 6.9 mph - N/A   Clear
11:53 AM 62.1 °F - 45.0 °F 53% 30.07 in 10.0 mi SSE 10.4 mph 17.3 mph N/A   Clear
12:53 PM 66.0 °F - 46.0 °F 48% 30.04 in 10.0 mi South 9.2 mph - N/A   Scattered Clouds
1:53 PM 70.0 °F - 48.0 °F 46% 29.96 in 10.0 mi SSE 11.5 mph - N/A   Partly Cloudy
3:53 PM 66.9 °F - 51.1 °F 57% 29.87 in 10.0 mi SSE 8.1 mph 19.6 mph 0.00 in Rain Light Rain
4:53 PM 63.0 °F - 54.0 °F 72% 29.86 in 8.0 mi South 5.8 mph - 0.00 in Rain Light Rain
5:53 PM 61.0 °F - 55.0 °F 81% 29.81 in 8.0 mi South 6.9 mph - 0.03 in Rain Light Rain
6:14 PM 60.8 °F - 55.4 °F 82% 29.86 in 1.5 mi West 16.1 mph - 0.08 in Rain Rain
6:53 PM 60.1 °F - 57.0 °F 90% 29.86 in 2.0 mi WSW 5.8 mph - 0.32 in Rain Rain
7:29 PM 60.8 °F - 57.2 °F 88% 29.85 in 2.0 mi WNW 6.9 mph - 0.15 in Rain Rain
7:48 PM 59.0 °F - 57.2 °F 94% 29.86 in 7.0 mi WNW 6.9 mph - N/A Rain Light Rain
7:53 PM 59.0 °F - 55.9 °F 90% 29.87 in 10.0 mi WNW 9.2 mph - 0.18 in Rain Light Rain
8:44 PM 55.4 °F - 51.8 °F 88% 29.88 in 10.0 mi NW 19.6 mph 25.3 mph 0.00 in   Overcast
8:53 PM 53.1 °F - 48.9 °F 86% 29.90 in 10.0 mi WNW 16.1 mph 25.3 mph 0.00 in   Overcast
9:53 PM 48.9 °F - 43.0 °F 80% 29.91 in 10.0 mi West 13.8 mph 21.9 mph N/A   Mostly Cloudy
10:53 PM 46.9 °F - 39.0 °F 74% 29.93 in 10.0 mi West 19.6 mph 32.2 mph N/A   Overcast
11:53 PM 46.0 °F 39.6 °F 39.0 °F 76% 29.92 in 10.0 mi WNW 15.0 mph 24.2 mph N/A   Overcast